Location: Bremen
(53.0830°N, 8.8000°E)
Time: 10:57:15
(UTC+01:00)

Envisat - Pass Details

Date: 02 October 2022
Orbit: 763 x 765 km, 98.2° (Epoch: 01 December)

Event Time Altitude Azimuth Distance (km) Brightness Sun altitude
Rises 04:53:39 0° 22° (NNE) 3,248 7.0 -23.2°
Reaches altitude 10° 04:56:19 10° 35° (NE) 2,316 6.3 -22.9°
Maximum altitude 05:00:37 27° 92° (E) 1,452 5.0 -22.3°
Drops below altitude 10° 05:04:53 10° 150° (SSE) 2,300 5.5 -21.7°
Sets 05:07:31 0° 162° (SSE) 3,221 6.2 -21.4°
